THORAD DELTA 1 DEB, 8163

Orbit data source: Space-Track

THORAD DELTA 1 DEB, 8163 is space debris in SSO originally from a launch on Fri, 15 Nov 1974 UTC launched from the Air Force Western Test Range (AFWTR). Debris objects in space refer to the collection of defunct objects orbiting the Earth. Examples of debris include non-operational satellites, rocket bodies, and fragments generated from explosions, collisions, or faulty payload assembly.

Loading next visibility...
Identifier
8163, 1974-089AD
Orbit
SSO
Country
Flag of USUS
Related business
Manufacturer
Unknown
Mission
Spacecraft
Bus & Motor
Unknown
Mass
Unknown
Launch date (UTC)
1974-11-15 (51 years ago)
Launch vehicle
Unknown
Launch site
Air Force Western Test Range (AFWTR)
Object type
Payload
Rocket body
Debris
Shape & HBR
Unknown
Radar Cross Section
Small (<0.1 m²)

Expand to show TLE details & history
Last TLE update: 6 hours ago

TLE from 6 hours ago
0 THORAD DELTA 1 DEB
1 08163U 74089AD  25260.95371204  .00000078  00000-0  78973-3 0  9994
2 08163 102.5063 271.2379 0325210 193.2021 166.0370 12.39082702276966
Epoch: 2025-09-17T22:53Z
TLE epoch observation values (Epoch: 2025-09-17T22:53:20.72Z)
Latitude
0.00001°
Longitude
-69.2207°
Altitude
1,762.491 km
Speed
6.887 km/s
True Right ascension
18h 04m 57s
True Declination
0° 00' 00"
Sunlit
Object was in daylight at epoch
Visualization orbit readout
Latitude
Unknown
Longitude
Unknown
Altitude
Unknown
Speed
Unknown
Apparent Right ascension
Unknown
Apparent Declination
Unknown
Sunlit
N/A
Visualization observer readout
Local Sidereal Time
21:34:46
Azimuth
Unknown
Elevation
Unknown
Doppler factor
Unknown
Orbital elements
Apogee altitude
1,764.565 km
Perigee altitude
1,251.629 km
Semi-major axis
7,886.234 km
Eccentricity
0.03252
Inclination
102.5063°
RAAN
271.2379°
Arg. of periapsis
193.2021°
True anomaly
166.90201°
Mean anomaly
166.037°
Eccentric anomaly
166.47284°
Mean motion
3.09912 °/min
Orbital period
116.16 mins
BSTAR
0.00078973
Loading maneuver chart data...
Computing Atmospheric mass density...
Loading historical data...
Loading historical data...
Loading historical data...
Loading historical data...
Loading historical data...
Loading historical data...
Loading historical data...

Documentation

Showing up to 5 results
|